contact: severine.martini@mio.osupytheas.fr, dominique.lefevre@mio.osupytheas.fr
Project:EMSO Ligure-ouest http://www.emso-fr.org/EMSO-France
Sensor Microcat Sea-Bird SBE37 SMP,  Serial 57510 
DOI : "https://doi.org/10.17882/97948" 
Title:EMSO Ligure Ouest : Data Bathybot capteur Microcat - deploiement 2023-04-28
Datetime,Profondeur,Latitude,Longitude,Temperature,Conductivite,Pression,Salinite
time,m,degree_north,degree_east,degree_C,S/m,db,PSU 
2024-01-03T00:00:49,2420,42.8014,5.9826,13.2984,4.59902,2453.695,38.4858
2024-01-03T00:03:49,2420,42.8014,5.9826,13.2982,4.59903,2453.672,38.4861
2024-01-03T00:06:49,2420,42.8014,5.9826,13.2986,4.59903,2453.672,38.4858
2024-01-03T00:09:49,2420,42.8014,5.9826,13.2980,4.59902,2453.627,38.4862
2024-01-03T00:12:49,2420,42.8014,5.9826,13.2985,4.59903,2453.649,38.4858
2024-01-03T00:15:50,2420,42.8014,5.9826,13.2982,4.59903,2453.627,38.4862
2024-01-03T00:18:49,2420,42.8014,5.9826,13.2983,4.59905,2453.664,38.4862
2024-01-03T00:21:49,2420,42.8014,5.9826,13.2983,4.59903,2453.672,38.4860
2024-01-03T00:24:49,2420,42.8014,5.9826,13.2978,4.59906,2453.649,38.4867
2024-01-03T00:27:49,2420,42.8014,5.9826,13.2983,4.59900,2453.672,38.4857
2024-01-03T00:30:49,2420,42.8014,5.9826,13.2983,4.59901,2453.649,38.4858
2024-01-03T00:33:49,2420,42.8014,5.9826,13.2989,4.59901,2453.649,38.4852
2024-01-03T00:36:49,2420,42.8014,5.9826,13.2980,4.59906,2453.695,38.4865
2024-01-03T00:39:49,2420,42.8014,5.9826,13.2982,4.59904,2453.695,38.4862
2024-01-03T00:42:49,2420,42.8014,5.9826,13.2986,4.59903,2453.649,38.4858
2024-01-03T00:45:49,2420,42.8014,5.9826,13.2982,4.59904,2453.649,38.4862
2024-01-03T00:48:49,2420,42.8014,5.9826,13.2984,4.59902,2453.672,38.4858
2024-01-03T00:51:49,2420,42.8014,5.9826,13.2985,4.59902,2453.695,38.4857
2024-01-03T00:54:49,2420,42.8014,5.9826,13.2988,4.59901,2453.672,38.4854
2024-01-03T00:57:50,2420,42.8014,5.9826,13.2985,4.59901,2453.672,38.4856
2024-01-03T01:00:49,2420,42.8014,5.9826,13.2983,4.59904,2453.672,38.4861
2024-01-03T01:03:49,2420,42.8014,5.9826,13.2984,4.59903,2453.672,38.4859
2024-01-03T01:06:49,2420,42.8014,5.9826,13.2983,4.59904,2453.672,38.4861
2024-01-03T01:09:49,2420,42.8014,5.9826,13.2983,4.59905,2453.672,38.4862
2024-01-03T01:12:49,2420,42.8014,5.9826,13.2984,4.59906,2453.672,38.4861
2024-01-03T01:15:49,2420,42.8014,5.9826,13.2986,4.59906,2453.672,38.4859
2024-01-03T01:18:50,2420,42.8014,5.9826,13.2986,4.59901,2453.649,38.4855
2024-01-03T01:21:49,2420,42.8014,5.9826,13.2989,4.59904,2453.709,38.4855
2024-01-03T01:24:49,2420,42.8014,5.9826,13.2984,4.59903,2453.657,38.4859
2024-01-03T01:27:49,2420,42.8014,5.9826,13.2982,4.59902,2453.672,38.4860
2024-01-03T01:30:49,2420,42.8014,5.9826,13.2986,4.59909,2453.649,38.4863
2024-01-03T01:33:49,2420,42.8014,5.9826,13.2986,4.59902,2453.649,38.4855
2024-01-03T01:36:49,2420,42.8014,5.9826,13.2984,4.59901,2453.649,38.4857
2024-01-03T01:39:49,2420,42.8014,5.9826,13.2982,4.59903,2453.657,38.4862
2024-01-03T01:42:49,2420,42.8014,5.9826,13.2986,4.59900,2453.687,38.4855
2024-01-03T01:45:49,2420,42.8014,5.9826,13.2982,4.59906,2453.635,38.4864
2024-01-03T01:48:49,2420,42.8014,5.9826,13.2983,4.59905,2453.627,38.4862
2024-01-03T01:51:49,2420,42.8014,5.9826,13.2982,4.59908,2453.649,38.4866
2024-01-03T01:54:50,2420,42.8014,5.9826,13.2983,4.59905,2453.649,38.4862
2024-01-03T01:57:49,2420,42.8014,5.9826,13.2986,4.59905,2453.649,38.4859
2024-01-03T02:00:50,2420,42.8014,5.9826,13.2982,4.59902,2453.672,38.4860
2024-01-03T02:03:49,2420,42.8014,5.9826,13.2984,4.59910,2453.649,38.4866
2024-01-03T02:06:49,2420,42.8014,5.9826,13.2989,4.59901,2453.649,38.4852
2024-01-03T02:09:49,2420,42.8014,5.9826,13.2983,4.59901,2453.627,38.4858
2024-01-03T02:12:50,2420,42.8014,5.9826,13.2985,4.59900,2453.627,38.4856
2024-01-03T02:15:49,2420,42.8014,5.9826,13.2985,4.59910,2453.649,38.4865
2024-01-03T02:18:50,2420,42.8014,5.9826,13.2979,4.59904,2453.627,38.4865
2024-01-03T02:21:49,2420,42.8014,5.9826,13.2983,4.59907,2453.649,38.4864
2024-01-03T02:24:49,2420,42.8014,5.9826,13.2978,4.59900,2453.672,38.4862
2024-01-03T02:27:49,2420,42.8014,5.9826,13.2979,4.59895,2453.635,38.4856
2024-01-03T02:30:49,2420,42.8014,5.9826,13.2979,4.59903,2453.627,38.4863
2024-01-03T02:33:49,2420,42.8014,5.9826,13.2980,4.59900,2453.590,38.4861
2024-01-03T02:36:50,2420,42.8014,5.9826,13.2980,4.59900,2453.635,38.4861
2024-01-03T02:39:49,2420,42.8014,5.9826,13.2979,4.59900,2453.612,38.4861
2024-01-03T02:42:49,2420,42.8014,5.9826,13.2979,4.59902,2453.604,38.4863
2024-01-03T02:45:49,2420,42.8014,5.9826,13.2980,4.59900,2453.649,38.4860
2024-01-03T02:48:49,2420,42.8014,5.9826,13.2982,4.59905,2453.635,38.4863
2024-01-03T02:51:49,2420,42.8014,5.9826,13.2978,4.59906,2453.582,38.4867
2024-01-03T02:54:49,2420,42.8014,5.9826,13.2982,4.59902,2453.627,38.4860
2024-01-03T02:57:50,2420,42.8014,5.9826,13.2979,4.59909,2453.604,38.4870
2024-01-03T03:00:49,2420,42.8014,5.9826,13.2978,4.59906,2453.649,38.4868
2024-01-03T03:03:49,2420,42.8014,5.9826,13.2979,4.59900,2453.649,38.4861
2024-01-03T03:06:49,2420,42.8014,5.9826,13.2978,4.59902,2453.590,38.4864
2024-01-03T03:09:49,2420,42.8014,5.9826,13.2977,4.59900,2453.627,38.4863
2024-01-03T03:12:49,2420,42.8014,5.9826,13.2981,4.59900,2453.627,38.4859
2024-01-03T03:15:50,2420,42.8014,5.9826,13.2981,4.59897,2453.649,38.4857
2024-01-03T03:18:49,2420,42.8014,5.9826,13.2978,4.59901,2453.627,38.4863
2024-01-03T03:21:50,2420,42.8014,5.9826,13.2980,4.59901,2453.627,38.4861
2024-01-03T03:24:49,2420,42.8014,5.9826,13.2977,4.59908,2453.582,38.4871
2024-01-03T03:27:50,2420,42.8014,5.9826,13.2978,4.59919,2453.627,38.4880
2024-01-03T03:30:49,2420,42.8014,5.9826,13.2978,4.59909,2453.619,38.4871
2024-01-03T03:33:49,2420,42.8014,5.9826,13.2974,4.59905,2453.604,38.4871
2024-01-03T03:36:49,2420,42.8014,5.9826,13.2978,4.59907,2453.627,38.4869
2024-01-03T03:39:50,2420,42.8014,5.9826,13.2979,4.59906,2453.649,38.4866
2024-01-03T03:42:49,2420,42.8014,5.9826,13.2978,4.59900,2453.641,38.4862
2024-01-03T03:45:50,2420,42.8014,5.9826,13.2979,4.59913,2453.604,38.4874
2024-01-03T03:48:49,2420,42.8014,5.9826,13.2975,4.59904,2453.627,38.4870
2024-01-03T03:51:50,2420,42.8014,5.9826,13.2978,4.59904,2453.641,38.4866
2024-01-03T03:54:49,2420,42.8014,5.9826,13.2978,4.59903,2453.649,38.4865
2024-01-03T03:57:50,2420,42.8014,5.9826,13.2976,4.59905,2453.627,38.4869
2024-01-03T04:00:49,2420,42.8014,5.9826,13.2978,4.59906,2453.627,38.4868
2024-01-03T04:03:49,2420,42.8014,5.9826,13.2971,4.59904,2453.649,38.4873
2024-01-03T04:06:50,2420,42.8014,5.9826,13.2975,4.59906,2453.649,38.4872
2024-01-03T04:09:49,2420,42.8014,5.9826,13.2979,4.59906,2453.590,38.4868
2024-01-03T04:12:50,2420,42.8014,5.9826,13.2975,4.59904,2453.604,38.4869
2024-01-03T04:15:49,2420,42.8014,5.9826,13.2979,4.59905,2453.627,38.4865
2024-01-03T04:18:50,2420,42.8014,5.9826,13.2976,4.59900,2453.604,38.4865
2024-01-03T04:21:49,2420,42.8014,5.9826,13.2979,4.59900,2453.582,38.4862
2024-01-03T04:24:50,2420,42.8014,5.9826,13.2979,4.59903,2453.627,38.4864
2024-01-03T04:27:49,2420,42.8014,5.9826,13.2976,4.59901,2453.627,38.4865
2024-01-03T04:30:50,2420,42.8014,5.9826,13.2978,4.59908,2453.627,38.4870
2024-01-03T04:33:50,2420,42.8014,5.9826,13.2978,4.59903,2453.627,38.4864
2024-01-03T04:36:49,2420,42.8014,5.9826,13.2975,4.59911,2453.641,38.4876
2024-01-03T04:39:49,2420,42.8014,5.9826,13.2978,4.59933,2453.590,38.4893
2024-01-03T04:42:50,2420,42.8014,5.9826,13.2982,4.59907,2453.649,38.4865
2024-01-03T04:45:49,2420,42.8014,5.9826,13.2979,4.59900,2453.627,38.4861
2024-01-03T04:48:50,2420,42.8014,5.9826,13.2981,4.59905,2453.604,38.4864
2024-01-03T04:51:49,2420,42.8014,5.9826,13.2979,4.59902,2453.582,38.4863
2024-01-03T04:54:50,2420,42.8014,5.9826,13.2984,4.59908,2453.604,38.4864
2024-01-03T04:57:49,2420,42.8014,5.9826,13.2980,4.59904,2453.627,38.4864
2024-01-03T05:00:50,2420,42.8014,5.9826,13.2979,4.59912,2453.604,38.4872
2024-01-03T05:03:50,2420,42.8014,5.9826,13.2980,4.59908,2453.627,38.4868
2024-01-03T05:06:49,2420,42.8014,5.9826,13.2978,4.59900,2453.590,38.4862
2024-01-03T05:09:49,2420,42.8014,5.9826,13.2979,4.59914,2453.627,38.4874
2024-01-03T05:12:49,2420,42.8014,5.9826,13.2979,4.59901,2453.604,38.4863
2024-01-03T05:15:50,2420,42.8014,5.9826,13.2978,4.59899,2453.604,38.4862
2024-01-03T05:18:49,2420,42.8014,5.9826,13.2982,4.59901,2453.590,38.4860
2024-01-03T05:21:50,2420,42.8014,5.9826,13.2986,4.59904,2453.604,38.4858
2024-01-03T05:24:49,2420,42.8014,5.9826,13.2978,4.59912,2453.604,38.4874
2024-01-03T05:27:50,2420,42.8014,5.9826,13.2981,4.59911,2453.604,38.4870
2024-01-03T05:30:49,2420,42.8014,5.9826,13.2986,4.59914,2453.604,38.4868
2024-01-03T05:33:49,2420,42.8014,5.9826,13.2981,4.59904,2453.627,38.4863
2024-01-03T05:36:49,2420,42.8014,5.9826,13.2978,4.59902,2453.582,38.4864
2024-01-03T05:39:49,2420,42.8014,5.9826,13.2984,4.59919,2453.612,38.4874
2024-01-03T05:42:49,2420,42.8014,5.9826,13.2977,4.59903,2453.604,38.4867
2024-01-03T05:45:49,2420,42.8014,5.9826,13.2986,4.59909,2453.604,38.4863
2024-01-03T05:48:50,2420,42.8014,5.9826,13.2985,4.59912,2453.596,38.4867
2024-01-03T05:51:49,2420,42.8014,5.9826,13.2982,4.59911,2453.604,38.4869
2024-01-03T05:54:50,2420,42.8014,5.9826,13.3029,4.59908,2453.627,38.4820
2024-01-03T05:57:49,2420,42.8014,5.9826,13.2998,4.59948,2453.627,38.4887
2024-01-03T06:00:50,2420,42.8014,5.9826,13.2990,4.59931,2453.627,38.4880
2024-01-03T06:03:50,2420,42.8014,5.9826,13.2996,4.59911,2453.604,38.4854
2024-01-03T06:06:49,2420,42.8014,5.9826,13.2985,4.59915,2453.604,38.4870
2024-01-03T06:09:49,2420,42.8014,5.9826,13.2984,4.59910,2453.604,38.4866
2024-01-03T06:12:50,2420,42.8014,5.9826,13.2975,4.59906,2453.612,38.4871
2024-01-03T06:15:49,2420,42.8014,5.9826,13.2982,4.59922,2453.604,38.4880
2024-01-03T06:18:50,2420,42.8014,5.9826,13.2989,4.59910,2453.612,38.4861
2024-01-03T06:21:49,2420,42.8014,5.9826,13.2982,4.59912,2453.627,38.4870
2024-01-03T06:24:50,2420,42.8014,5.9826,13.2978,4.59900,2453.627,38.4862
2024-01-03T06:27:49,2420,42.8014,5.9826,13.2976,4.59904,2453.627,38.4868
2024-01-03T06:30:50,2420,42.8014,5.9826,13.2982,4.59933,2453.590,38.4890
2024-01-03T06:33:50,2420,42.8014,5.9826,13.2981,4.59919,2453.627,38.4877
2024-01-03T06:36:50,2420,42.8014,5.9826,13.2978,4.59901,2453.649,38.4864
2024-01-03T06:39:49,2420,42.8014,5.9826,13.2981,4.59905,2453.612,38.4864
2024-01-03T06:42:49,2420,42.8014,5.9826,13.2980,4.59903,2453.604,38.4863
2024-01-03T06:45:50,2420,42.8014,5.9826,13.2982,4.59912,2453.627,38.4870
2024-01-03T06:48:49,2420,42.8014,5.9826,13.2985,4.59913,2453.627,38.4868
2024-01-03T06:51:50,2420,42.8014,5.9826,13.2981,4.59920,2453.627,38.4878
2024-01-03T06:54:49,2420,42.8014,5.9826,13.2981,4.59912,2453.649,38.4871
2024-01-03T06:57:50,2420,42.8014,5.9826,13.2986,4.59899,2453.649,38.4853
2024-01-03T07:00:49,2420,42.8014,5.9826,13.2981,4.59907,2453.627,38.4866
2024-01-03T07:03:49,2420,42.8014,5.9826,13.2982,4.59910,2453.649,38.4868
2024-01-03T07:06:49,2420,42.8014,5.9826,13.2981,4.59937,2453.649,38.4894
2024-01-03T07:09:50,2420,42.8014,5.9826,13.2991,4.59909,2453.627,38.4858
2024-01-03T07:12:49,2420,42.8014,5.9826,13.2996,4.59918,2453.627,38.4862
2024-01-03T07:15:50,2420,42.8014,5.9826,13.3179,4.59948,2453.649,38.4708
2024-01-03T07:18:49,2420,42.8014,5.9826,13.3065,4.59939,2453.664,38.4812
2024-01-03T07:21:49,2420,42.8014,5.9826,13.3033,4.59928,2453.627,38.4835
2024-01-03T07:24:50,2420,42.8014,5.9826,13.3079,4.59930,2453.649,38.4790
2024-01-03T07:27:49,2420,42.8014,5.9826,13.3055,4.59936,2453.649,38.4819
2024-01-03T07:30:49,2420,42.8014,5.9826,13.3008,4.59966,2453.649,38.4895
2024-01-03T07:33:49,2420,42.8014,5.9826,13.2986,4.59959,2453.649,38.4910
2024-01-03T07:36:49,2420,42.8014,5.9826,13.2986,4.59968,2453.649,38.4918
2024-01-03T07:39:49,2420,42.8014,5.9826,13.2984,4.60003,2453.672,38.4953
2024-01-03T07:42:49,2420,42.8014,5.9826,13.3034,4.59957,2453.649,38.4861
2024-01-03T07:45:49,2420,42.8014,5.9826,13.2988,4.59934,2453.649,38.4884
2024-01-03T07:48:49,2420,42.8014,5.9826,13.2986,4.59937,2453.695,38.4890
2024-01-03T07:51:49,2420,42.8014,5.9826,13.2982,4.59932,2453.672,38.4889
2024-01-03T07:54:49,2420,42.8014,5.9826,13.2997,4.59915,2453.672,38.4857
2024-01-03T07:57:49,2420,42.8014,5.9826,13.2988,4.59922,2453.649,38.4873
2024-01-03T08:00:50,2420,42.8014,5.9826,13.2986,4.59937,2453.649,38.4889
2024-01-03T08:03:49,2420,42.8014,5.9826,13.2988,4.59911,2453.672,38.4863
2024-01-03T08:06:49,2420,42.8014,5.9826,13.2980,4.59926,2453.672,38.4885
2024-01-03T08:09:49,2420,42.8014,5.9826,13.2983,4.59946,2453.695,38.4901
2024-01-03T08:12:49,2420,42.8014,5.9826,13.3010,4.59934,2453.687,38.4862
2024-01-03T08:15:49,2420,42.8014,5.9826,13.2991,4.59947,2453.657,38.4894
2024-01-03T08:18:49,2420,42.8014,5.9826,13.2986,4.59994,2453.649,38.4942
2024-01-03T08:21:49,2420,42.8014,5.9826,13.2985,4.59958,2453.672,38.4910
2024-01-03T08:24:49,2420,42.8014,5.9826,13.2986,4.59933,2453.695,38.4885
2024-01-03T08:27:50,2420,42.8014,5.9826,13.2978,4.59957,2453.672,38.4917
2024-01-03T08:30:49,2420,42.8014,5.9826,13.2988,4.59943,2453.687,38.4893
2024-01-03T08:33:49,2420,42.8014,5.9826,13.2979,4.59945,2453.717,38.4903
2024-01-03T08:36:50,2420,42.8014,5.9826,13.3011,4.59939,2453.717,38.4866
2024-01-03T08:39:49,2420,42.8014,5.9826,13.2982,4.59909,2453.657,38.4866
2024-01-03T08:42:50,2420,42.8014,5.9826,13.2979,4.59916,2453.695,38.4876
2024-01-03T08:45:49,2420,42.8014,5.9826,13.2977,4.59900,2453.717,38.4864
2024-01-03T08:48:50,2420,42.8014,5.9826,13.2978,4.59905,2453.695,38.4867
2024-01-03T08:51:49,2420,42.8014,5.9826,13.2980,4.59911,2453.740,38.4871
2024-01-03T08:54:49,2420,42.8014,5.9826,13.2978,4.59926,2453.717,38.4886
2024-01-03T08:57:49,2420,42.8014,5.9826,13.2986,4.59920,2453.717,38.4872
2024-01-03T09:00:49,2420,42.8014,5.9826,13.2982,4.59917,2453.717,38.4874
2024-01-03T09:03:49,2420,42.8014,5.9826,13.2978,4.59916,2453.717,38.4877
2024-01-03T09:06:49,2420,42.8014,5.9826,13.2978,4.59911,2453.717,38.4872
2024-01-03T09:09:49,2420,42.8014,5.9826,13.2978,4.59906,2453.754,38.4867
2024-01-03T09:12:49,2420,42.8014,5.9826,13.2977,4.59917,2453.680,38.4880
2024-01-03T09:15:49,2420,42.8014,5.9826,13.2979,4.59913,2453.725,38.4873
2024-01-03T09:18:49,2420,42.8014,5.9826,13.2977,4.59910,2453.732,38.4873
2024-01-03T09:21:49,2420,42.8014,5.9826,13.2978,4.59909,2453.717,38.4870
2024-01-03T09:24:49,2420,42.8014,5.9826,13.2993,4.59917,2453.754,38.4863
2024-01-03T09:27:49,2420,42.8014,5.9826,13.2976,4.59910,2453.740,38.4873
2024-01-03T09:30:49,2420,42.8014,5.9826,13.2978,4.59906,2453.762,38.4867
2024-01-03T09:33:49,2420,42.8014,5.9826,13.2976,4.59902,2453.762,38.4865
2024-01-03T09:36:49,2420,42.8014,5.9826,13.2975,4.59905,2453.702,38.4869
2024-01-03T09:39:49,2420,42.8014,5.9826,13.2977,4.59915,2453.762,38.4877
2024-01-03T09:42:49,2420,42.8014,5.9826,13.2978,4.59906,2453.717,38.4868
2024-01-03T09:45:49,2420,42.8014,5.9826,13.2978,4.59910,2453.740,38.4872
2024-01-03T09:48:49,2420,42.8014,5.9826,13.2974,4.59895,2453.740,38.4861
2024-01-03T09:51:49,2420,42.8014,5.9826,13.2978,4.59894,2453.762,38.4857
2024-01-03T09:54:49,2420,42.8014,5.9826,13.2976,4.59899,2453.762,38.4863
2024-01-03T09:57:50,2420,42.8014,5.9826,13.2976,4.59894,2453.762,38.4858
2024-01-03T10:00:49,2420,42.8014,5.9826,13.2976,4.59895,2453.740,38.4859
2024-01-03T10:03:49,2420,42.8014,5.9826,13.2976,4.59895,2453.762,38.4859
2024-01-03T10:06:49,2420,42.8014,5.9826,13.2975,4.59894,2453.740,38.4860
2024-01-03T10:09:49,2420,42.8014,5.9826,13.2980,4.59894,2453.777,38.4854
2024-01-03T10:12:49,2420,42.8014,5.9826,13.2978,4.59894,2453.740,38.4856
2024-01-03T10:15:50,2420,42.8014,5.9826,13.2979,4.59894,2453.740,38.4854
2024-01-03T10:18:49,2420,42.8014,5.9826,13.2978,4.59894,2453.740,38.4856
2024-01-03T10:21:50,2420,42.8014,5.9826,13.2985,4.59894,2453.762,38.4850
2024-01-03T10:24:49,2420,42.8014,5.9826,13.2982,4.59894,2453.762,38.4852
2024-01-03T10:27:49,2420,42.8014,5.9826,13.2973,4.59894,2453.762,38.4861
2024-01-03T10:30:50,2420,42.8014,5.9826,13.2979,4.59894,2453.762,38.4855
2024-01-03T10:33:49,2420,42.8014,5.9826,13.2975,4.59894,2453.762,38.4859
2024-01-03T10:36:49,2420,42.8014,5.9826,13.2981,4.59894,2453.777,38.4853
2024-01-03T10:39:49,2420,42.8014,5.9826,13.2979,4.59892,2453.785,38.4854
2024-01-03T10:42:49,2420,42.8014,5.9826,13.2976,4.59893,2453.785,38.4857
2024-01-03T10:45:50,2420,42.8014,5.9826,13.2978,4.59893,2453.785,38.4855
2024-01-03T10:48:49,2420,42.8014,5.9826,13.2982,4.59894,2453.762,38.4853
2024-01-03T10:51:50,2420,42.8014,5.9826,13.2975,4.59892,2453.762,38.4857
2024-01-03T10:54:49,2420,42.8014,5.9826,13.2974,4.59894,2453.762,38.4860
2024-01-03T10:57:49,2420,42.8014,5.9826,13.2979,4.59894,2453.785,38.4854
2024-01-03T11:00:49,2420,42.8014,5.9826,13.2978,4.59893,2453.785,38.4855
2024-01-03T11:03:49,2420,42.8014,5.9826,13.3000,4.59894,2453.748,38.4834
2024-01-03T11:06:50,2420,42.8014,5.9826,13.2978,4.59892,2453.785,38.4854
2024-01-03T11:09:49,2420,42.8014,5.9826,13.2977,4.59893,2453.762,38.4856
2024-01-03T11:12:49,2420,42.8014,5.9826,13.2986,4.59893,2453.770,38.4847
2024-01-03T11:15:50,2420,42.8014,5.9826,13.2985,4.59894,2453.785,38.4850
2024-01-03T11:18:49,2420,42.8014,5.9826,13.2980,4.59893,2453.793,38.4853
2024-01-03T11:21:50,2420,42.8014,5.9826,13.2976,4.59892,2453.770,38.4856
2024-01-03T11:24:49,2420,42.8014,5.9826,13.2979,4.59893,2453.793,38.4854
2024-01-03T11:27:50,2420,42.8014,5.9826,13.2982,4.59893,2453.785,38.4852
2024-01-03T11:30:49,2420,42.8014,5.9826,13.2978,4.59892,2453.807,38.4855
2024-01-03T11:33:50,2420,42.8014,5.9826,13.2980,4.59893,2453.793,38.4853
2024-01-03T11:36:49,2420,42.8014,5.9826,13.2977,4.59892,2453.770,38.4856
2024-01-03T11:39:49,2420,42.8014,5.9826,13.2976,4.59894,2453.830,38.4857
2024-01-03T11:42:49,2420,42.8014,5.9826,13.2976,4.59893,2453.785,38.4857
2024-01-03T11:45:49,2420,42.8014,5.9826,13.2977,4.59894,2453.785,38.4857
2024-01-03T11:48:50,2420,42.8014,5.9826,13.2979,4.59894,2453.762,38.4855
2024-01-03T11:51:49,2420,42.8014,5.9826,13.2975,4.59894,2453.807,38.4859
2024-01-03T11:54:50,2420,42.8014,5.9826,13.2974,4.59894,2453.762,38.4860
2024-01-03T11:57:49,2420,42.8014,5.9826,13.2975,4.59894,2453.740,38.4859
2024-01-03T12:00:50,2420,42.8014,5.9826,13.2975,4.59895,2453.785,38.4861
2024-01-03T12:03:49,2420,42.8014,5.9826,13.2980,4.59894,2453.785,38.4854
2024-01-03T12:06:49,2420,42.8014,5.9826,13.2977,4.59894,2453.807,38.4857
2024-01-03T12:09:50,2420,42.8014,5.9826,13.2979,4.59894,2453.785,38.4856
2024-01-03T12:12:49,2420,42.8014,5.9826,13.2973,4.59894,2453.785,38.4860
2024-01-03T12:15:50,2420,42.8014,5.9826,13.2978,4.59894,2453.785,38.4855
2024-01-03T12:18:49,2420,42.8014,5.9826,13.2983,4.59894,2453.785,38.4851
2024-01-03T12:21:50,2420,42.8014,5.9826,13.2971,4.59894,2453.762,38.4863
2024-01-03T12:24:49,2420,42.8014,5.9826,13.2975,4.59894,2453.740,38.4859
2024-01-03T12:27:49,2420,42.8014,5.9826,13.2975,4.59894,2453.785,38.4859
2024-01-03T12:30:49,2420,42.8014,5.9826,13.2981,4.59893,2453.762,38.4852
2024-01-03T12:33:49,2420,42.8014,5.9826,13.2976,4.59892,2453.807,38.4856
2024-01-03T12:36:50,2420,42.8014,5.9826,13.2976,4.59892,2453.777,38.4856
2024-01-03T12:39:49,2420,42.8014,5.9826,13.2989,4.59893,2453.762,38.4844
2024-01-03T12:42:50,2420,42.8014,5.9826,13.2979,4.59893,2453.785,38.4854
2024-01-03T12:45:49,2420,42.8014,5.9826,13.2979,4.59894,2453.785,38.4855
2024-01-03T12:48:50,2420,42.8014,5.9826,13.2973,4.59894,2453.785,38.4861
2024-01-03T12:51:49,2420,42.8014,5.9826,13.2978,4.59894,2453.777,38.4856
2024-01-03T12:54:50,2420,42.8014,5.9826,13.2977,4.59893,2453.740,38.4856
2024-01-03T12:57:49,2420,42.8014,5.9826,13.2979,4.59893,2453.762,38.4854
2024-01-03T13:00:49,2420,42.8014,5.9826,13.2976,4.59894,2453.762,38.4858
2024-01-03T13:03:49,2420,42.8014,5.9826,13.2977,4.59894,2453.762,38.4857
2024-01-03T13:06:49,2420,42.8014,5.9826,13.2978,4.59893,2453.785,38.4855
2024-01-03T13:09:49,2420,42.8014,5.9826,13.2981,4.59894,2453.762,38.4853
2024-01-03T13:12:49,2420,42.8014,5.9826,13.2982,4.59893,2453.748,38.4851
2024-01-03T13:15:49,2420,42.8014,5.9826,13.2990,4.59894,2453.762,38.4844
2024-01-03T13:18:49,2420,42.8014,5.9826,13.2977,4.59894,2453.785,38.4857
2024-01-03T13:21:49,2420,42.8014,5.9826,13.2976,4.59894,2453.702,38.4858
2024-01-03T13:24:49,2420,42.8014,5.9826,13.2978,4.59894,2453.762,38.4856
2024-01-03T13:27:49,2420,42.8014,5.9826,13.2982,4.59894,2453.762,38.4852
2024-01-03T13:30:49,2420,42.8014,5.9826,13.2975,4.59894,2453.717,38.4859
2024-01-03T13:33:49,2420,42.8014,5.9826,13.2976,4.59894,2453.717,38.4858
2024-01-03T13:36:49,2420,42.8014,5.9826,13.2987,4.59894,2453.748,38.4848
2024-01-03T13:39:49,2420,42.8014,5.9826,13.2978,4.59894,2453.740,38.4856
2024-01-03T13:42:49,2420,42.8014,5.9826,13.2986,4.59894,2453.754,38.4847
2024-01-03T13:45:49,2420,42.8014,5.9826,13.2987,4.59894,2453.740,38.4848
2024-01-03T13:48:49,2420,42.8014,5.9826,13.2981,4.59893,2453.740,38.4852
2024-01-03T13:51:49,2420,42.8014,5.9826,13.2979,4.59894,2453.770,38.4855
2024-01-03T13:54:49,2420,42.8014,5.9826,13.2983,4.59894,2453.754,38.4851
2024-01-03T13:57:49,2420,42.8014,5.9826,13.2974,4.59894,2453.740,38.4860
2024-01-03T14:00:49,2420,42.8014,5.9826,13.2978,4.59894,2453.740,38.4856
2024-01-03T14:03:49,2420,42.8014,5.9826,13.2975,4.59894,2453.762,38.4859
2024-01-03T14:06:49,2420,42.8014,5.9826,13.2979,4.59895,2453.740,38.4857
2024-01-03T14:09:49,2420,42.8014,5.9826,13.2978,4.59894,2453.702,38.4857
2024-01-03T14:12:49,2420,42.8014,5.9826,13.2977,4.59894,2453.740,38.4858
2024-01-03T14:15:49,2420,42.8014,5.9826,13.2980,4.59895,2453.740,38.4855
2024-01-03T14:18:49,2420,42.8014,5.9826,13.2980,4.59894,2453.717,38.4855
2024-01-03T14:21:49,2420,42.8014,5.9826,13.2980,4.59894,2453.702,38.4854
2024-01-03T14:24:49,2420,42.8014,5.9826,13.2980,4.59894,2453.740,38.4854
2024-01-03T14:27:49,2420,42.8014,5.9826,13.2980,4.59894,2453.740,38.4854
2024-01-03T14:30:49,2420,42.8014,5.9826,13.2996,4.59894,2453.702,38.4838
2024-01-03T14:33:49,2420,42.8014,5.9826,13.2979,4.59894,2453.732,38.4855
2024-01-03T14:36:49,2420,42.8014,5.9826,13.2982,4.59895,2453.762,38.4853
2024-01-03T14:39:49,2420,42.8014,5.9826,13.2978,4.59894,2453.732,38.4857
2024-01-03T14:42:49,2420,42.8014,5.9826,13.2975,4.59894,2453.740,38.4859
2024-01-03T14:45:49,2420,42.8014,5.9826,13.2978,4.59894,2453.740,38.4856
2024-01-03T14:48:49,2420,42.8014,5.9826,13.2980,4.59894,2453.717,38.4855
2024-01-03T14:51:49,2420,42.8014,5.9826,13.2979,4.59895,2453.717,38.4856
2024-01-03T14:54:49,2420,42.8014,5.9826,13.2980,4.59895,2453.732,38.4855
2024-01-03T14:57:49,2420,42.8014,5.9826,13.2979,4.59895,2453.740,38.4856
2024-01-03T15:00:49,2420,42.8014,5.9826,13.2982,4.59895,2453.695,38.4854
2024-01-03T15:03:49,2420,42.8014,5.9826,13.2979,4.59895,2453.740,38.4857
2024-01-03T15:06:49,2420,42.8014,5.9826,13.2979,4.59898,2453.740,38.4859
2024-01-03T15:09:49,2420,42.8014,5.9826,13.2980,4.59897,2453.717,38.4857
2024-01-03T15:12:49,2420,42.8014,5.9826,13.2975,4.59895,2453.717,38.4860
2024-01-03T15:15:49,2420,42.8014,5.9826,13.2975,4.59894,2453.717,38.4859
2024-01-03T15:18:49,2420,42.8014,5.9826,13.2973,4.59895,2453.709,38.4862
2024-01-03T15:21:49,2420,42.8014,5.9826,13.2977,4.59894,2453.717,38.4858
2024-01-03T15:24:49,2420,42.8014,5.9826,13.2977,4.59894,2453.695,38.4857
2024-01-03T15:27:49,2420,42.8014,5.9826,13.2977,4.59897,2453.717,38.4860
2024-01-03T15:30:49,2420,42.8014,5.9826,13.2977,4.59897,2453.672,38.4861
2024-01-03T15:33:49,2420,42.8014,5.9826,13.2978,4.59894,2453.740,38.4856
2024-01-03T15:36:49,2420,42.8014,5.9826,13.2978,4.59895,2453.657,38.4858
2024-01-03T15:39:49,2420,42.8014,5.9826,13.2978,4.59900,2453.695,38.4861
2024-01-03T15:42:49,2420,42.8014,5.9826,13.2974,4.59898,2453.695,38.4864
2024-01-03T15:45:49,2420,42.8014,5.9826,13.2978,4.59896,2453.695,38.4859
2024-01-03T15:48:49,2420,42.8014,5.9826,13.2975,4.59895,2453.695,38.4861
2024-01-03T15:51:49,2420,42.8014,5.9826,13.2979,4.59897,2453.709,38.4858
2024-01-03T15:54:49,2420,42.8014,5.9826,13.2978,4.59894,2453.702,38.4857
2024-01-03T15:57:49,2420,42.8014,5.9826,13.2976,4.59894,2453.695,38.4859
2024-01-03T16:00:49,2420,42.8014,5.9826,13.2980,4.59894,2453.695,38.4854
2024-01-03T16:03:49,2420,42.8014,5.9826,13.2978,4.59896,2453.672,38.4859